Theta_e
349 347 344 338 337 337 336 336 336 336 336 336 336 337 337 337 339 338 338 339 340 341 341 340 336 337 338 337 338 337 336 337 338 338 337 336 338 338 336 339 342 341 341 343 344 343 342 342 342 341 341 342 342 341 340 340 340 340 340 340 339 339 338 338 337 337 337 337 337 335 335 335 336 338 339 340 339 338 338 339 339 340 340 340 340
350 348 345 338 336 336 335 335 334 334 334 335 335 336 337 337 338 338 339 339 340 339 340 337 336 338 338 337 337 337 338 339 338 337 336 337 338 337 338 340 341 341 341 342 344 343 341 342 341 341 342 341 341 340 340 339 339 340 340 339 339 338 338 338 337 337 336 336 334 332 333 334 335 337 337 339 339 338 337 338 338 339 339 339 340
349 348 345 338 335 335 334 333 332 332 332 332 333 333 335 336 337 338 338 338 338 337 337 335 336 338 337 335 336 337 336 336 337 337 336 338 338 337 339 340 340 340 341 342 344 343 342 342 341 341 341 341 340 339 340 339 337 336 336 336 337 338 338 338 337 337 335 333 331 331 333 334 335 335 336 336 337 337 337 337 338 338 338 338 339
348 348 345 339 335 334 333 332 331 331 330 330 330 330 331 332 333 334 335 334 332 332 333 334 336 337 335 334 336 338 337 335 337 337 337 338 337 338 339 339 340 341 342 343 343 343 343 343 341 341 340 340 339 338 337 335 332 330 329 330 332 333 334 335 335 335 334 332 330 332 334 335 334 334 334 335 335 335 336 336 337 338 338 338 338
348 348 346 341 338 336 333 332 331 330 328 328 327 326 327 327 328 328 328 327 326 330 334 336 337 338 334 334 337 339 338 337 337 337 337 338 338 338 339 341 342 342 342 343 344 344 343 342 341 341 340 339 339 336 334 332 330 330 328 326 327 328 330 330 330 330 331 330 330 333 335 335 334 333 333 334 334 332 333 335 336 337 338 339 338
348 348 346 344 343 338 333 333 331 330 328 327 325 325 324 323 323 323 324 325 329 334 336 337 338 337 334 334 339 339 338 338 337 338 338 338 339 340 341 343 343 342 343 343 344 344 343 342 341 341 340 339 338 336 334 333 332 332 331 327 325 326 329 329 327 327 326 328 331 334 334 333 333 332 333 333 333 330 330 334 336 336 336 338 338
348 347 346 345 345 340 333 333 332 330 328 326 325 323 323 323 322 324 329 331 335 338 336 337 337 336 334 335 338 338 338 338 338 338 338 339 340 342 343 343 343 342 342 343 343 342 342 342 342 341 340 339 338 336 336 336 335 333 333 330 326 326 328 329 328 326 326 330 333 334 332 332 332 332 333 333 333 330 329 334 336 334 333 336 337
348 348 346 345 346 341 334 333 332 330 329 326 324 323 323 323 325 332 336 335 337 339 338 338 337 336 337 337 337 338 339 338 338 339 338 339 341 343 343 343 343 343 342 342 342 342 342 342 342 341 339 338 335 334 333 334 333 333 334 331 328 326 327 328 328 326 328 332 332 332 332 332 331 331 332 332 332 330 328 333 335 334 332 333 336
348 348 347 346 345 340 333 333 332 331 329 326 324 323 323 327 332 337 338 337 338 339 338 337 336 337 338 337 337 338 339 338 338 339 338 339 341 342 343 343 342 342 343 342 342 342 341 341 339 336 334 333 332 331 331 331 331 332 333 332 329 327 327 327 327 328 330 331 330 330 330 331 331 330 331 331 331 330 331 333 334 334 333 333 334
348 348 347 347 345 339 334 334 333 332 329 327 325 324 328 332 335 338 338 336 338 339 336 336 336 338 338 337 338 339 339 339 338 338 339 340 341 341 342 342 341 342 341 341 341 340 339 336 333 332 331 330 330 331 332 332 332 332 333 332 330 327 326 325 327 331 332 331 331 331 331 331 331 331 331 332 332 333 333 332 332 334 334 333 332
348 347 346 347 345 339 335 334 333 332 330 327 325 326 333 335 335 338 338 336 338 339 337 337 338 338 338 337 336 338 339 339 338 338 339 340 340 340 341 341 340 340 340 340 339 338 335 332 330 330 330 330 331 331 332 332 332 332 333 332 331 329 326 326 330 332 332 332 331 330 330 331 330 330 330 331 331 333 333 332 332 333 334 333 333
348 347 346 347 344 339 336 335 333 333 330 328 326 327 334 336 335 337 338 338 337 339 337 336 338 338 339 338 336 337 338 338 338 338 338 339 339 338 339 339 339 339 339 339 338 336 333 331 330 329 330 330 331 331 332 332 332 332 332 332 330 329 327 327 331 332 331 331 330 329 329 329 330 329 329 330 330 332 333 332 332 333 334 333 333
348 347 346 346 344 340 336 335 334 333 331 329 328 326 332 337 337 336 338 338 336 337 335 335 337 338 339 338 338 338 337 337 337 338 337 337 338 337 338 338 338 339 338 337 336 335 333 330 329 330 331 331 331 332 333 332 332 331 331 330 329 328 326 327 331 331 331 331 330 330 330 330 330 329 330 331 331 331 332 331 331 332 333 332 332
348 347 347 346 345 341 337 335 334 333 332 330 330 328 331 336 337 337 338 337 336 337 335 335 337 337 338 337 337 338 337 337 338 338 338 337 338 338 338 338 338 338 337 335 334 334 331 329 329 331 332 332 332 333 333 332 331 329 327 327 327 326 325 328 331 331 331 330 330 330 330 331 331 331 331 331 331 331 331 330 330 331 331 330 331
348 347 347 347 345 343 340 338 336 334 333 332 332 332 332 335 337 337 337 337 337 337 336 335 336 337 338 337 336 337 336 336 337 337 338 338 338 338 338 337 337 336 335 334 334 332 329 328 330 332 333 333 333 333 333 332 330 327 324 324 325 325 327 330 331 331 330 330 330 330 331 330 330 330 331 331 330 330 330 330 330 330 329 329 330
348 347 347 347 345 343 342 340 339 337 335 334 333 334 333 333 337 337 335 336 337 337 336 334 335 336 337 337 335 334 335 334 335 334 336 338 337 337 336 335 335 334 334 333 333 331 328 327 330 333 333 333 333 333 333 331 329 327 323 322 323 323 326 330 331 330 330 330 330 331 331 330 329 330 330 330 330 330 329 330 330 330 330 330 330
347 348 347 346 345 343 342 342 340 338 336 335 334 333 332 333 336 337 335 335 336 337 336 335 336 335 335 336 334 333 335 335 334 332 333 334 334 333 333 333 333 333 333 332 331 328 326 327 331 333 334 334 333 333 332 331 329 326 323 320 321 322 323 328 331 330 330 330 330 330 330 330 330 330 330 329 329 329 328 329 330 330 330 331 330
347 347 347 346 345 344 343 342 340 340 339 337 336 334 331 334 336 335 335 335 335 336 336 336 338 337 335 334 332 335 337 337 335 333 334 332 330 330 330 330 331 332 331 331 329 325 324 327 332 333 334 334 333 333 332 332 330 326 323 320 320 321 321 326 331 330 330 330 329 329 329 329 329 330 329 329 329 328 328 329 330 329 329 329 328
347 347 346 346 345 344 343 343 341 341 341 339 339 336 333 335 334 334 335 335 335 336 336 336 338 339 337 334 331 334 338 337 335 335 336 333 328 327 327 327 329 329 329 328 325 322 323 328 332 334 334 334 333 333 332 331 330 327 322 320 320 320 323 328 330 330 330 330 329 329 329 329 329 329 329 329 329 329 329 330 330 329 329 327 326
347 346 346 345 345 345 344 343 342 342 342 341 340 339 337 336 335 334 335 335 335 336 336 336 338 338 336 334 332 334 336 335 336 336 336 333 328 324 324 326 326 327 326 324 322 320 323 328 332 334 334 334 334 333 332 332 330 326 322 319 319 321 326 330 330 330 330 329 330 329 329 329 328 329 329 329 329 329 329 329 330 329 329 327 326
347 347 346 345 345 344 344 343 343 342 343 342 340 339 339 338 337 335 335 335 335 336 336 335 336 336 335 334 333 335 335 335 337 338 336 335 331 325 322 325 325 324 324 322 319 319 324 330 332 334 334 333 333 333 332 331 330 326 322 320 320 323 327 330 331 330 330 330 329 329 329 329 329 329 328 328 328 328 328 328 329 328 328 327 327
346 346 345 345 345 344 344 343 343 343 342 342 340 339 339 338 338 337 337 337 335 336 337 335 336 338 336 335 335 335 335 336 337 338 337 335 333 329 322 325 326 324 323 320 318 320 325 331 333 334 333 333 333 332 332 331 330 326 323 322 322 324 326 329 331 331 330 330 330 329 329 329 329 329 328 328 328 328 328 328 328 328 328 327 326
346 346 346 345 345 344 345 344 344 343 342 342 341 340 339 339 338 339 338 336 336 338 339 338 338 340 339 339 338 335 336 337 336 337 337 334 333 331 326 327 329 326 323 320 319 322 328 332 334 334 333 333 333 333 333 332 330 326 324 323 324 325 325 328 330 331 331 331 330 329 329 329 329 328 328 328 328 328 327 327 327 326 326 325 325
346 346 346 345 345 345 345 344 344 343 343 342 341 341 340 339 339 339 338 337 338 339 340 339 340 340 340 341 339 336 337 336 335 336 336 335 334 332 329 330 332 330 327 323 322 326 331 334 334 334 333 333 333 333 333 332 330 327 325 325 325 325 326 328 330 331 331 331 330 329 329 329 328 329 328 328 328 327 327 326 325 325 325 325 325
345 345 346 345 345 345 344 344 344 343 343 342 341 341 340 339 339 339 339 339 340 340 340 339 340 341 341 341 338 337 336 336 336 335 335 335 335 334 332 332 334 333 331 328 325 328 333 335 335 334 333 333 333 333 333 332 331 328 326 326 326 326 327 329 330 331 331 331 330 329 329 328 329 329 328 328 327 327 326 325 325 324 324 324 325
345 345 345 346 345 345 344 344 344 343 342 342 341 341 341 340 339 340 339 340 340 340 340 339 340 340 340 340 338 337 336 337 337 336 335 335 335 335 334 334 335 333 332 330 325 328 334 335 335 334 333 333 333 333 333 332 331 329 327 328 327 327 328 330 331 331 331 330 330 329 328 329 329 328 328 328 327 326 325 325 324 324 324 324 324
345 345 343 345 345 344 344 344 344 343 343 342 341 342 342 341 340 340 339 339 340 340 339 338 338 339 340 340 338 338 337 337 338 337 335 335 335 335 334 335 336 333 332 331 327 329 334 335 335 334 333 334 333 333 333 332 332 330 329 329 328 328 329 330 331 331 331 330 330 329 329 328 328 328 328 327 326 326 325 325 324 324 325 325 324
344 345 344 343 344 344 344 344 344 344 344 342 342 342 342 341 341 340 338 339 340 341 338 335 337 338 339 341 340 339 338 337 337 336 336 336 335 334 335 335 336 334 331 331 329 329 333 335 335 334 333 333 333 333 333 332 332 330 330 329 329 328 328 329 331 331 331 330 330 329 329 328 328 327 326 326 326 326 327 326 325 325 325 324 323
342 344 344 343 343 343 343 344 343 344 344 342 342 342 342 342 341 340 339 339 340 340 337 335 336 337 339 340 340 340 339 337 337 336 336 336 336 335 335 335 335 335 332 331 330 330 332 333 334 334 334 333 333 333 332 332 332 330 330 330 330 328 328 329 330 330 331 330 330 330 328 328 327 325 325 327 328 328 328 328 326 325 324 323 322
342 344 344 342 342 342 342 343 343 343 343 343 343 343 343 342 341 340 338 338 340 340 337 335 336 337 339 339 339 339 338 338 337 336 336 335 336 336 335 335 335 335 334 332 331 330 331 332 333 333 333 333 333 333 332 332 332 331 330 330 330 329 329 331 331 330 331 330 330 329 328 327 326 326 327 328 329 329 328 327 325 324 324 324 323
342 343 343 342 342 343 342 341 342 342 342 343 343 343 343 341 341 341 338 338 340 340 338 336 335 337 338 338 338 338 338 338 336 335 335 335 335 335 335 335 334 335 335 333 332 330 331 332 334 334 334 333 333 333 333 332 332 331 330 330 330 329 330 332 331 330 330 330 330 329 328 326 325 327 328 329 328 328 327 326 325 325 325 324 324
341 342 343 342 342 342 341 340 340 340 341 343 343 343 343 341 340 340 338 338 339 339 338 337 336 337 338 338 338 337 337 337 335 335 335 335 335 334 334 335 335 334 334 334 333 331 331 331 333 335 334 332 332 333 333 333 332 331 330 331 330 329 331 332 331 331 330 330 329 330 329 326 326 327 328 328 328 326 326 326 326 325 325 325 324
340 340 341 341 341 341 341 340 339 339 339 342 344 342 342 341 339 339 338 337 339 339 338 337 337 338 338 338 337 336 337 336 334 335 336 335 334 333 334 335 335 334 333 333 333 332 331 330 332 334 333 331 331 331 332 333 332 331 330 330 330 330 332 332 331 331 330 330 330 329 329 328 327 327 328 327 327 326 326 327 326 325 325 325 324
339 339 340 340 340 339 339 339 339 339 339 341 343 342 341 340 339 338 338 338 338 338 337 336 336 336 336 337 337 336 336 335 334 335 335 335 334 332 334 335 335 333 332 332 333 332 331 331 331 332 332 331 331 331 332 333 333 332 331 330 330 331 332 331 331 331 330 329 329 329 329 329 329 328 328 326 325 326 327 327 326 325 325 325 324
338 338 339 339 339 338 337 337 337 339 340 339 341 340 339 340 339 336 337 338 337 336 335 335 335 336 336 336 337 336 336 336 335 334 334 335 335 333 333 334 333 332 331 331 332 332 331 331 331 332 332 332 332 333 333 334 334 333 332 331 332 332 332 331 330 330 330 329 329 329 329 329 329 328 328 326 326 326 327 327 325 325 325 324 324
338 338 338 338 339 337 336 337 336 339 341 340 340 340 338 339 339 336 336 337 336 335 335 335 335 335 335 336 336 336 337 337 337 336 335 336 336 334 333 333 332 330 330 331 331 332 332 330 331 333 332 332 334 334 334 334 334 334 333 333 333 333 332 331 331 330 330 329 329 329 328 328 328 328 326 325 326 326 325 326 325 324 325 324 322
339 338 339 338 338 337 336 336 336 338 339 338 339 339 337 337 338 336 336 336 335 334 335 336 336 335 335 335 336 336 336 336 336 336 336 337 337 335 334 333 332 330 330 332 333 333 333 331 331 333 333 332 334 334 334 335 334 334 333 333 333 333 332 331 331 330 329 329 329 328 328 329 328 326 325 324 326 326 324 324 323 323 323 322 322
339 339 339 338 338 337 337 336 336 337 337 336 337 338 336 336 336 335 335 335 334 335 335 336 336 335 335 335 336 336 335 335 335 336 336 336 336 335 335 334 333 332 331 333 333 334 333 332 331 333 333 333 334 334 335 335 334 333 333 333 333 332 332 331 330 330 330 329 329 328 329 328 327 326 325 325 326 326 325 323 323 324 325 324 325
340 339 339 338 338 337 337 336 336 338 339 337 337 337 336 335 335 335 335 334 333 334 334 334 334 334 335 335 336 335 335 335 335 336 335 336 336 335 335 335 334 332 332 333 334 334 333 332 332 333 333 333 334 334 334 334 334 333 332 332 332 332 332 331 330 330 330 329 329 329 328 328 327 326 326 325 325 326 326 326 325 326 327 326 327
339 339 339 339 338 338 338 337 337 338 338 338 337 336 335 334 334 334 334 333 332 333 334 333 334 334 334 335 335 334 335 336 336 336 336 337 336 335 336 335 334 333 332 333 333 333 334 333 332 333 333 333 333 333 334 333 332 332 332 332 331 331 331 331 330 329 329 329 329 328 328 328 327 327 327 326 326 326 326 326 327 328 328 327 326
339 339 339 339 338 338 338 337 338 338 337 338 337 336 334 332 332 333 333 332 332 333 333 333 333 334 334 334 335 334 335 336 335 335 336 335 335 335 336 335 335 333 333 333 332 332 332 331 332 332 332 332 332 332 332 332 331 331 331 331 331 331 331 331 330 330 329 329 329 328 328 328 327 327 327 327 327 327 326 325 326 328 329 328 327
338 338 338 339 338 338 338 337 338 337 337 337 337 336 334 332 332 333 333 332 333 334 334 334 334 334 334 333 334 334 334 335 335 335 335 334 334 335 335 335 335 334 333 333 333 332 329 328 330 331 331 331 332 331 331 332 332 332 331 331 330 330 331 330 330 330 329 329 329 328 328 328 328 327 328 328 328 328 327 326 326 327 328 328 328
337 337 338 338 338 338 338 337 337 337 337 337 336 336 335 333 333 333 333 333 333 333 334 334 334 334 334 333 334 334 334 335 335 335 334 334 334 334 334 334 334 334 334 333 332 331 329 329 330 331 330 331 331 331 331 332 332 332 332 331 330 330 330 330 329 329 329 328 328 328 328 328 328 328 328 329 329 328 328 327 327 328 328 327 327
336 336 337 337 337 337 337 337 337 337 337 337 337 336 335 333 333 333 333 333 333 334 334 334 334 333 334 333 334 334 334 335 335 334 333 333 334 333 333 334 334 334 334 333 332 330 329 331 332 331 331 331 330 330 331 330 331 332 331 331 330 330 330 330 329 328 328 328 327 328 328 328 329 328 329 329 329 329 329 328 328 328 328 327 327
336 336 336 336 336 336 337 337 336 336 336 336 335 334 333 333 332 333 333 333 334 334 334 334 334 334 334 334 334 334 334 334 335 334 333 332 333 333 332 333 333 333 333 333 332 331 331 332 332 332 332 331 330 330 330 330 331 332 331 331 331 330 330 330 329 328 328 329 329 328 328 329 329 329 329 329 328 328 328 328 328 328 327 327 327
335 335 335 335 336 335 335 336 335 335 335 335 334 333 333 333 333 333 334 334 335 335 334 334 334 334 334 334 334 334 334 334 334 334 333 332 332 333 332 333 333 332 333 333 332 332 332 332 332 332 332 331 330 330 330 330 330 330 330 330 330 329 330 329 329 329 328 329 329 329 329 329 329 329 329 328 327 327 327 327 327 327 327 327 327
334 334 334 334 334 334 334 334 334 334 334 334 333 333 333 333 333 334 334 334 335 335 335 334 334 333 334 334 334 334 334 333 333 333 332 332 332 332 331 332 333 332 333 333 333 333 332 332 332 332 332 332 331 331 330 330 330 330 329 329 327 327 330 330 329 328 328 328 329 329 329 329 329 329 328 327 327 326 327 327 326 326 326 326 327
333 333 333 333 333 333 333 333 333 334 333 333 333 333 333 333 333 334 334 334 334 334 335 335 334 333 333 334 333 334 334 333 333 332 332 331 332 332 332 332 332 333 333 333 333 332 332 332 331 331 331 331 332 332 331 330 331 330 329 329 328 328 330 330 330 329 328 328 329 329 329 329 328 329 329 327 327 326 326 326 326 326 326 325 326
332 332 332 332 332 333 333 333 333 333 332 332 333 333 333 333 333 333 333 333 333 334 334 335 334 333 333 333 333 334 334 333 333 332 332 331 331 332 332 332 332 333 333 332 333 332 331 332 331 330 331 331 332 332 332 330 331 331 330 330 330 329 329 329 329 329 329 328 328 329 329 329 328 328 328 328 327 327 327 326 326 326 325 325 325
330 330 331 331 332 332 332 333 333 332 332 331 331 332 333 333 333 334 334 334 333 333 334 334 334 334 334 333 333 333 333 333 333 332 332 331 332 332 332 332 332 333 333 333 333 332 331 332 331 330 330 331 332 332 331 330 331 331 330 331 331 330 330 330 329 329 329 328 328 328 329 329 328 328 327 327 327 327 326 325 325 325 324 323 323
328 329 329 329 330 330 331 331 332 332 333 332 332 332 333 333 333 333 333 333 333 333 334 334 334 334 333 333 333 332 332 332 332 332 331 331 332 332 332 332 332 333 333 333 334 333 332 331 331 331 331 331 331 332 331 331 332 331 331 331 331 330 330 331 331 330 329 329 327 327 328 328 328 327 326 327 326 325 324 324 323 323 322 322 322
Wind_Speed
19 20 21 24 25 26 25 25 25 25 25 26 27 27 28 28 27 27 27 26 24 22 20 20 21 21 21 20 21 21 22 22 21 21 23 25 24 22 21 20 20 19 18 18 19 20 21 22 23 23 22 22 21 21 21 20 20 20 19 19 19 19 18 18 18 18 18 18 18 19 19 18 18 18 19 20 20 22 22 22 22 21 20 20 21
22 21 21 23 25 25 25 25 24 24 25 25 26 26 27 26 26 25 25 24 22 21 20 20 21 20 20 21 21 22 22 22 22 22 25 25 23 22 22 21 21 19 18 19 19 20 22 23 23 23 23 22 22 22 22 21 21 20 19 19 19 19 18 18 18 18 18 17 18 19 19 18 18 17 18 19 19 21 22 22 22 21 20 21 22
22 22 22 23 25 25 25 24 24 24 24 25 26 26 26 25 25 24 23 23 22 21 20 20 20 19 20 22 23 22 22 23 23 23 25 23 22 22 22 21 20 18 18 20 20 21 22 23 23 23 23 23 23 22 21 21 20 20 19 18 17 17 16 16 17 17 17 17 19 18 18 18 17 17 18 18 18 19 21 22 22 21 21 21 22
22 22 22 24 24 25 24 23 23 23 24 24 24 25 25 25 25 24 24 23 23 22 20 20 20 20 21 24 23 22 23 24 24 24 24 22 21 22 21 21 20 18 19 20 20 21 22 22 23 24 23 22 22 21 20 21 20 20 19 17 15 15 14 14 15 15 16 16 18 18 16 16 16 17 17 17 17 18 19 20 20 20 20 21 21
21 21 21 23 22 24 24 23 23 22 23 23 24 25 25 26 25 25 24 24 23 21 19 19 20 20 20 24 23 22 23 24 24 24 23 22 22 21 21 20 19 19 20 21 21 21 22 23 23 23 22 21 20 19 19 20 19 19 18 17 15 13 13 13 13 13 14 14 16 16 14 14 15 16 16 16 16 16 17 19 19 18 18 20 20
20 20 21 21 20 22 23 23 22 22 22 22 24 24 25 25 25 25 24 22 21 19 19 19 20 19 21 24 24 22 23 23 24 24 23 22 21 20 19 19 19 20 21 21 21 21 21 22 22 21 20 19 19 18 18 18 16 16 17 16 14 13 13 13 13 13 13 14 15 14 13 13 13 14 15 14 15 15 16 18 17 17 18 18 19
19 18 21 20 19 20 23 23 22 22 22 22 23 23 24 24 24 22 22 21 20 19 19 20 20 20 21 23 23 23 23 24 25 24 23 22 20 18 18 19 20 20 21 21 22 21 21 21 21 20 19 18 17 17 16 15 14 14 14 14 13 13 13 14 14 14 14 15 14 13 12 12 13 14 14 14 15 15 17 18 16 17 18 18 18
17 17 19 19 18 20 23 22 22 22 22 22 23 23 23 23 22 21 21 20 20 21 20 20 20 20 20 21 22 22 23 26 25 24 23 21 19 17 17 19 20 20 21 21 21 20 20 19 18 18 18 17 15 15 14 12 11 12 12 12 13 13 14 14 15 15 15 14 13 13 13 13 13 13 14 14 15 15 17 18 16 17 18 18 18
17 17 17 18 18 21 23 23 22 22 22 22 22 22 22 22 21 22 21 20 21 22 21 20 20 20 21 21 22 22 23 25 25 23 23 20 19 18 17 18 19 20 20 20 20 19 18 17 17 18 18 15 14 14 13 11 9 9 10 11 12 13 14 15 16 15 14 14 14 13 13 13 13 13 13 14 15 15 16 16 15 16 17 17 18
18 18 18 18 19 22 23 23 22 21 22 22 22 21 21 21 21 22 21 20 21 22 21 20 20 20 21 21 21 23 23 23 24 24 23 20 19 19 17 17 18 18 18 18 18 18 17 17 18 17 15 14 14 14 14 12 10 9 10 11 11 13 14 15 16 15 14 15 15 15 15 15 14 14 14 15 15 16 16 16 16 15 16 17 17
16 17 18 18 19 22 23 22 21 21 21 21 21 21 20 21 21 22 21 20 20 21 22 21 21 20 21 21 22 23 22 23 25 25 23 21 19 18 16 16 16 16 17 17 17 17 18 18 17 15 14 14 15 15 15 13 12 11 10 11 11 12 13 14 14 14 14 15 15 16 16 16 15 15 15 15 15 15 16 16 17 16 16 16 17
16 17 18 18 19 22 23 21 21 21 21 21 21 21 21 21 21 21 22 22 20 20 22 22 21 20 21 20 21 21 22 24 24 23 22 21 19 18 16 15 15 15 16 16 16 18 18 17 15 14 14 15 16 15 14 13 12 12 12 11 11 11 11 13 13 13 14 15 15 15 15 15 15 15 14 14 14 13 14 15 15 15 15 15 16
17 17 18 18 18 21 22 20 20 20 20 21 21 21 21 21 20 20 21 22 20 19 21 23 21 20 21 20 20 21 21 21 20 20 20 20 19 18 16 15 15 14 15 17 17 17 16 15 14 14 14 15 16 14 13 14 13 13 13 11 11 11 12 14 14 13 14 15 15 15 15 15 15 15 14 14 14 13 13 14 14 14 14 14 15
18 17 18 18 18 19 20 20 20 20 20 21 20 21 21 21 20 20 21 21 21 19 20 22 21 20 20 20 20 19 19 18 17 17 18 19 19 17 16 14 14 13 15 17 16 15 14 13 13 13 14 15 15 14 13 14 14 14 13 11 11 13 14 15 14 13 14 15 15 15 15 16 15 15 14 14 14 13 13 13 14 13 13 13 14
17 18 18 18 18 18 18 18 19 20 20 20 20 20 20 21 21 21 20 20 21 20 20 21 21 20 19 20 19 17 17 18 17 17 17 18 18 16 15 14 13 13 14 15 15 13 12 12 12 13 14 14 14 13 13 14 14 14 14 13 12 13 15 14 13 13 13 14 15 14 15 15 15 14 14 14 13 13 13 13 13 13 13 13 13
17 19 18 18 19 19 18 17 18 20 20 20 21 20 20 21 21 20 20 20 21 20 20 21 20 20 19 19 18 17 18 19 18 16 16 16 17 16 15 14 13 13 14 14 13 12 12 12 11 12 12 12 14 13 13 13 13 14 15 13 12 12 14 14 13 13 13 13 14 14 15 14 13 14 13 13 13 13 13 13 13 12 13 13 13
16 18 17 18 18 18 18 16 17 18 19 20 20 20 20 20 21 19 19 20 20 20 20 20 19 20 19 17 17 18 18 18 17 15 14 15 16 17 15 15 14 13 13 13 12 11 12 12 11 11 11 12 13 13 13 13 13 14 15 14 14 13 14 15 13 12 13 13 13 13 13 13 13 13 13 13 13 13 13 12 12 12 12 12 12
17 18 17 18 18 18 18 17 16 17 17 19 19 19 19 20 20 19 19 19 19 19 18 18 19 20 18 17 18 18 17 17 17 15 14 14 15 16 16 15 15 14 13 12 12 12 14 13 11 11 11 12 13 13 12 12 12 14 15 15 14 14 15 16 13 13 13 13 12 13 13 13 13 13 13 13 13 13 12 12 12 11 11 11 11
18 18 18 19 18 18 17 17 17 16 16 17 17 17 19 20 19 19 19 19 19 19 18 19 19 19 17 17 19 18 16 17 17 16 14 13 14 15 15 14 15 15 13 12 12 13 14 13 11 11 12 12 14 13 12 12 12 13 15 15 14 15 16 15 13 13 13 12 11 12 12 13 13 13 13 12 12 12 12 11 11 11 10 10 10
17 18 19 18 18 18 17 17 17 17 16 17 17 17 18 19 18 19 19 19 19 18 18 18 19 19 17 16 18 18 16 16 16 16 15 13 13 16 15 13 14 15 14 13 13 14 15 14 11 11 13 13 14 14 12 12 11 12 14 14 15 15 16 14 13 12 12 12 11 11 11 12 13 12 12 12 12 11 11 11 10 10 9 10 10
17 18 18 18 18 19 18 18 17 17 17 17 17 18 19 18 18 19 19 19 18 18 17 17 18 17 16 16 16 16 16 16 15 15 15 13 11 15 17 13 13 14 14 14 14 14 15 14 12 11 13 14 15 14 12 11 11 12 13 14 15 15 15 14 13 12 12 11 11 11 11 11 11 11 11 11 11 11 11 10 10 9 9 9 10
16 18 18 17 18 19 18 18 17 18 19 19 19 19 20 19 18 18 18 18 17 17 16 16 17 16 15 15 15 15 16 15 14 14 14 13 11 14 17 14 12 13 14 14 14 15 15 15 14 13 13 14 15 15 13 11 10 11 12 14 14 14 14 14 12 11 11 11 11 12 11 10 10 10 11 10 9 9 9 9 9 9 9 8 8
15 16 17 17 17 18 17 17 17 18 19 19 19 19 19 19 18 18 18 18 17 17 16 17 17 17 16 15 14 15 15 14 14 13 13 13 12 13 15 13 11 12 14 15 15 15 15 14 14 14 15 15 15 15 13 11 10 10 12 13 14 14 13 13 12 11 11 10 11 11 10 9 10 10 10 9 9 9 9 9 9 9 9 8 7
14 15 16 16 17 16 16 16 17 18 19 19 18 18 18 19 19 18 17 18 18 17 17 18 18 18 18 17 15 15 14 13 13 14 12 13 13 13 14 13 10 11 13 14 15 15 14 14 14 15 16 16 16 15 14 12 11 11 11 12 13 13 13 12 11 10 10 10 11 11 9 9 9 9 9 9 9 9 9 9 8 8 8 9 9
14 15 14 15 17 16 16 16 16 18 19 19 19 20 20 21 20 19 18 17 17 18 17 17 18 17 17 17 16 15 14 12 13 14 12 12 13 13 14 12 9 10 12 12 14 15 14 14 14 16 17 17 17 16 15 13 11 11 11 11 12 12 12 11 10 9 9 9 9 10 9 10 9 8 8 9 8 8 8 8 8 8 8 9 9
15 16 14 16 17 16 16 17 17 18 20 21 21 21 21 22 21 20 19 17 17 18 17 17 18 18 17 18 17 17 15 13 13 13 12 12 12 12 13 11 9 10 11 11 14 16 14 15 15 16 18 18 17 16 15 13 12 11 11 11 11 11 11 10 9 9 9 9 8 9 9 9 8 8 8 8 8 8 8 8 8 9 9 9 9
14 16 15 15 16 16 16 18 19 20 20 20 20 19 19 20 20 19 19 19 18 18 17 18 20 20 17 17 18 17 16 14 13 13 13 13 12 12 12 10 8 10 12 12 14 16 14 14 15 16 18 18 17 16 14 13 12 11 11 10 10 10 10 10 9 9 9 9 8 9 9 8 8 8 8 7 7 7 8 8 8 9 9 8 9
13 14 15 14 16 16 16 17 19 19 19 19 19 18 18 19 19 19 19 18 18 17 18 20 21 19 17 17 18 17 16 15 13 13 13 12 11 11 12 11 9 10 12 12 14 16 15 14 14 16 18 18 17 16 15 13 11 11 10 10 9 9 10 9 9 9 9 8 8 8 8 8 7 7 7 7 7 6 6 8 8 8 8 8 9
14 14 14 15 16 17 16 17 18 18 18 19 18 17 18 18 18 19 19 17 16 17 19 21 21 19 17 18 18 17 17 16 14 13 13 12 11 11 11 12 10 10 12 12 12 16 15 14 14 15 17 17 17 16 15 13 11 10 10 9 9 9 9 9 8 8 8 8 7 6 7 6 5 6 8 7 6 6 7 7 8 8 7 7 8
16 14 13 15 16 17 17 16 17 17 17 17 18 18 18 19 18 18 19 18 17 17 19 19 20 20 18 18 19 18 17 15 14 13 12 12 11 11 11 13 12 10 12 12 12 14 15 14 13 14 15 16 16 15 14 13 12 10 10 9 9 9 8 7 7 7 7 7 7 6 6 5 5 7 7 6 5 6 7 7 7 7 6 7 8
15 13 14 15 16 16 16 16 17 17 16 17 19 19 19 19 17 18 19 18 17 18 19 19 20 20 18 19 20 19 17 15 14 12 12 12 11 11 12 13 13 11 10 12 13 13 15 14 13 13 13 14 14 14 14 13 12 11 10 9 9 8 7 6 6 6 6 6 6 6 5 5 6 7 6 6 5 6 6 6 6 6 6 6 7
15 15 14 15 16 16 16 17 16 17 16 16 18 18 17 17 16 18 19 16 15 18 18 18 20 19 19 19 19 18 17 15 14 12 13 12 10 11 13 13 13 11 9 12 13 13 14 14 14 14 12 11 12 13 13 13 13 11 11 10 9 8 6 6 6 6 6 6 6 6 6 5 6 7 6 6 5 5 5 5 6 6 6 6 6
16 17 15 16 17 17 17 17 15 16 16 15 17 17 15 15 16 17 18 15 14 16 16 17 19 19 19 19 19 18 17 16 14 13 14 12 10 12 13 13 13 11 10 12 14 13 14 14 14 14 13 11 11 12 13 14 14 13 12 11 10 8 6 6 6 5 5 5 6 6 5 5 6 6 6 6 5 5 5 6 6 5 5 5 5
15 16 16 16 17 17 17 16 15 14 16 15 14 16 14 14 18 18 16 13 13 15 16 16 17 18 19 19 19 19 18 16 14 13 14 13 13 14 14 13 13 12 11 12 13 13 14 14 15 15 14 12 11 12 13 13 12 12 12 12 10 7 6 6 6 5 5 5 6 5 5 5 6 5 5 5 5 4 5 5 5 4 4 5 6
15 15 15 14 14 15 15 14 15 13 14 15 15 16 13 14 18 16 14 13 13 14 15 14 15 16 18 18 19 19 17 15 14 13 14 14 15 16 16 15 14 14 12 11 12 13 13 14 15 15 15 13 11 10 10 10 10 9 10 9 8 7 6 6 6 5 5 5 5 5 5 5 5 5 4 4 4 3 3 4 4 4 5 5 6
15 12 11 11 12 13 14 14 14 14 14 15 16 15 15 15 14 12 12 13 13 14 14 13 14 15 15 16 17 17 15 15 13 13 13 14 14 16 17 17 16 16 15 12 12 13 13 15 15 15 16 14 10 9 8 9 9 9 9 8 7 7 7 7 6 5 5 6 6 5 5 5 4 4 4 4 4 3 2 3 4 4 5 5 5
13 10 9 11 12 12 13 14 14 16 16 15 16 15 15 17 15 14 15 15 15 15 13 11 11 12 11 13 17 16 15 16 15 14 13 13 14 15 17 17 16 16 16 14 13 13 14 16 15 13 15 14 10 10 9 9 9 9 8 8 8 8 7 7 6 5 6 6 6 5 5 4 4 4 4 5 5 4 3 4 5 6 7 7 6
11 10 11 11 11 11 11 12 12 15 16 15 16 16 15 16 17 17 16 16 15 14 13 13 12 11 8 11 15 15 15 16 16 15 14 14 15 15 17 18 17 16 17 15 13 16 16 17 16 11 10 12 10 10 10 10 9 9 9 9 9 9 8 7 5 5 6 6 6 6 5 5 5 5 4 5 6 5 5 6 7 7 7 7 6
9 10 11 10 9 9 9 9 11 14 15 15 16 16 15 16 19 17 15 15 14 13 14 15 16 15 13 12 13 13 15 16 16 15 15 16 17 16 17 18 18 17 18 14 13 17 18 18 17 12 8 8 9 10 11 11 10 9 10 9 8 8 8 7 6 5 5 6 5 5 5 5 6 6 5 5 6 6 6 7 7 6 5 5 4
7 8 9 8 7 8 8 8 12 14 15 15 16 16 15 16 18 15 12 13 12 12 14 16 16 16 14 13 12 12 14 17 17 16 17 18 17 17 17 18 19 18 18 15 14 17 19 19 15 13 11 9 8 10 10 11 12 11 10 9 8 7 7 7 6 5 5 6 6 5 5 5 6 6 6 5 5 5 6 6 6 5 4 4 3
4 5 5 6 6 7 8 8 11 14 15 15 16 16 15 15 16 14 11 12 12 11 12 15 15 12 11 13 14 13 14 17 17 17 17 16 15 16 18 19 19 18 17 15 15 18 20 20 14 12 13 12 11 11 11 13 14 12 9 8 7 6 7 7 6 5 6 7 7 7 7 7 8 7 6 6 5 5 5 6 5 4 3 2 1
2 3 4 5 6 7 8 9 11 13 14 16 17 16 14 13 14 14 12 11 11 12 12 15 14 10 11 15 15 14 16 18 18 17 14 11 14 17 18 19 19 17 16 14 17 19 20 21 16 13 13 12 12 13 14 13 11 11 10 8 6 6 6 5 3 5 8 8 8 9 9 9 10 9 7 5 5 5 5 6 6 4 3 2 1
2 2 3 3 6 8 9 10 12 13 14 14 15 14 13 13 13 13 11 9 9 10 12 14 13 11 12 15 16 16 18 18 18 17 13 12 15 17 18 20 19 18 17 16 18 19 19 19 17 15 12 10 11 15 16 13 11 12 10 6 5 4 3 3 3 4 5 6 7 8 8 9 11 10 8 6 5 5 4 5 6 5 3 1 1
1 2 3 3 4 6 8 9 11 13 14 13 13 13 12 10 10 10 9 7 7 8 10 12 12 12 13 15 16 16 17 17 17 16 12 12 15 17 19 20 19 19 18 16 17 20 21 17 15 14 13 13 14 16 17 13 12 13 8 4 4 4 3 4 6 5 3 3 4 6 6 7 9 9 7 6 5 4 3 4 5 5 4 2 1
0 1 2 3 2 4 7 9 10 11 12 11 10 10 9 6 6 7 8 7 6 7 10 12 11 12 15 16 15 15 15 15 16 15 11 11 15 17 18 19 19 18 16 15 17 21 20 16 14 14 14 15 16 15 15 13 12 12 7 4 4 3 3 5 7 5 5 5 4 5 5 5 7 7 6 5 5 4 3 3 3 3 3 2 1
1 1 1 1 2 2 4 6 8 9 10 10 8 7 6 5 6 7 8 8 7 9 12 14 14 14 16 16 15 14 15 15 15 15 13 13 16 17 17 17 17 17 15 16 20 20 17 16 17 15 14 15 15 15 14 13 12 12 10 7 4 2 3 8 6 4 5 6 5 6 5 5 6 7 6 5 5 5 3 3 3 2 2 1 1
2 1 2 2 3 4 5 7 8 9 10 10 7 6 6 6 8 9 8 9 9 11 12 13 14 16 16 16 15 15 16 15 15 15 15 15 17 18 17 15 15 18 18 19 21 19 16 18 18 16 15 14 13 14 15 14 12 11 9 7 6 3 5 7 5 3 5 5 5 6 6 6 6 5 5 4 4 5 4 3 2 1 1 1 0
4 3 4 4 5 7 8 8 9 10 10 10 8 7 7 7 9 10 10 11 12 13 13 12 13 16 17 15 15 16 16 16 15 15 15 15 17 18 16 14 15 17 19 21 20 18 18 20 19 17 16 15 13 13 14 15 13 12 9 7 5 5 6 5 4 5 4 4 6 5 5 7 7 5 5 4 4 4 3 2 1 0 1 1 0
5 5 4 3 4 5 6 8 9 9 9 9 8 8 9 9 10 11 12 13 15 16 15 12 12 14 17 16 15 16 16 16 16 17 17 16 16 17 15 15 15 16 17 18 16 16 19 20 20 19 18 15 13 12 13 14 13 12 12 9 6 6 6 4 5 5 4 4 5 5 6 7 6 6 5 4 5 5 3 2 2 2 2 2 1
6 5 5 4 3 3 5 7 8 9 10 10 9 10 11 11 11 11 12 14 17 18 16 14 13 13 15 16 16 16 14 14 15 18 19 16 14 16 16 15 16 16 16 16 15 17 19 19 17 18 18 17 15 12 11 12 12 12 12 11 8 8 7 5 6 6 4 4 4 6 8 7 6 6 5 4 6 5 3 2 2 1 1 0 0
7 7 6 5 4 4 4 6 8 9 10 9 9 10 11 12 12 12 13 15 17 18 17 16 15 14 14 16 17 16 14 12 13 16 17 14 13 15 16 15 16 17 17 17 17 18 18 16 15 15 18 19 15 13 11 11 12 12 12 12 10 10 8 5 6 8 6 5 4 6 9 9 7 6 5 7 7 5 3 3 2 1 1 2 2
Wind_Direction
152 153 152 158 156 155 154 152 151 148 146 142 140 139 139 139 139 141 143 142 140 137 132 132 130 127 124 124 125 124 120 119 120 122 127 125 121 127 128 117 113 114 112 108 106 109 110 109 108 107 107 106 104 102 102 100 98 96 95 96 98 98 96 96 98 97 94 91 90 89 86 83 79 76 74 73 72 72 73 76 74 71 71 72 71
150 151 150 157 155 155 154 153 152 150 148 145 143 141 141 140 139 140 140 140 139 136 132 132 130 126 124 125 125 124 121 123 122 122 124 122 126 129 122 116 116 116 113 109 108 109 109 108 107 107 106 105 103 102 101 99 98 96 94 95 98 100 99 99 100 100 97 94 92 91 87 84 80 77 75 74 71 70 71 73 74 71 69 71 71
147 149 149 155 155 155 154 153 152 150 149 147 146 145 143 142 141 140 140 140 138 135 133 132 129 125 126 127 124 122 119 121 122 123 123 121 126 124 118 117 117 117 114 111 111 110 108 107 107 106 105 104 103 102 100 99 98 96 93 93 97 99 101 102 102 103 103 102 98 92 86 83 81 79 77 75 73 71 70 71 71 70 69 70 71
144 147 148 154 155 155 154 153 152 151 149 148 149 148 147 145 144 143 142 140 139 137 134 131 128 126 128 127 122 120 118 118 121 122 122 122 123 119 119 119 119 120 115 113 113 111 110 108 107 106 105 104 103 104 104 102 99 95 92 91 94 99 102 105 105 106 105 106 103 94 86 82 80 78 76 74 74 74 74 73 71 71 70 70 71
142 144 148 150 151 154 155 153 152 151 149 149 149 149 149 148 147 145 143 142 141 136 131 130 129 128 128 126 121 120 121 121 121 121 122 122 121 121 123 121 121 121 116 114 113 111 111 109 108 107 106 105 104 106 107 103 99 95 92 90 92 99 105 107 108 109 109 108 103 94 90 88 82 79 78 76 76 78 79 77 75 75 73 70 71
141 145 147 145 146 153 155 154 152 151 149 149 149 149 148 148 148 146 143 141 138 131 130 131 130 127 126 124 123 123 123 123 122 122 123 122 123 123 123 121 120 118 117 116 114 113 111 111 109 107 106 106 108 108 105 101 98 93 90 89 90 97 105 109 109 110 111 107 98 93 94 92 86 82 82 82 79 82 83 78 75 76 77 73 70
140 146 148 144 145 153 156 155 152 150 150 150 150 148 147 147 146 142 138 136 132 130 132 131 127 124 123 124 124 125 125 126 125 123 123 124 123 122 122 120 118 118 119 117 116 116 113 112 110 109 111 110 108 104 99 97 94 90 88 89 92 98 106 110 111 112 109 100 93 94 96 93 91 87 84 84 81 83 87 83 77 77 79 76 71
140 145 148 146 146 153 156 156 153 150 150 151 150 149 148 145 141 136 132 132 132 132 132 129 126 125 124 125 125 124 126 127 126 125 126 127 125 122 122 119 119 119 119 118 116 114 114 112 109 113 118 113 106 99 93 91 88 86 89 92 96 101 109 113 112 110 103 96 94 94 95 95 94 90 86 84 82 84 88 85 78 76 78 77 75
140 143 147 146 148 154 157 157 153 151 150 151 152 151 147 142 138 133 131 133 134 133 131 129 126 127 126 126 126 125 128 128 128 128 129 131 131 128 124 122 123 122 120 120 116 115 116 113 111 114 116 111 103 98 95 94 91 90 93 96 100 105 111 116 113 103 96 94 95 95 96 96 94 91 88 85 82 84 87 86 81 77 76 77 79
143 147 147 145 151 157 158 158 153 151 151 153 153 150 144 140 137 133 132 134 134 133 132 130 127 127 128 128 128 129 131 132 133 135 135 137 139 135 129 127 128 125 123 121 118 119 118 115 113 113 110 105 100 98 97 96 98 99 99 102 104 107 113 114 107 97 94 94 93 94 96 95 94 92 91 89 85 84 87 90 89 86 81 79 81
145 150 148 147 155 158 157 157 154 152 152 154 154 149 141 139 138 135 136 136 135 135 134 132 130 130 130 129 130 132 136 139 140 142 142 143 145 142 134 131 131 127 125 123 122 121 118 115 111 109 104 102 101 99 96 94 98 101 103 107 108 110 116 112 102 96 96 95 93 94 94 93 94 96 96 93 88 85 85 86 87 88 85 82 81
148 150 150 151 158 159 157 157 155 153 154 155 154 149 142 139 141 139 139 138 137 139 137 133 133 134 131 130 131 132 138 143 145 146 148 148 147 146 140 136 135 131 130 127 125 122 119 115 109 105 101 100 102 101 97 95 97 100 103 108 109 109 113 111 103 98 97 95 95 95 93 91 93 97 97 94 93 89 85 85 87 87 85 84 82
149 149 151 153 158 160 158 157 154 154 155 155 155 151 144 141 141 141 142 140 139 140 137 134 135 137 135 133 133 132 135 139 142 144 149 149 146 146 144 143 142 138 134 129 126 124 121 115 110 105 100 101 105 104 99 96 96 97 100 104 107 107 110 109 103 99 97 95 95 95 93 92 94 98 98 95 95 92 86 85 87 87 84 85 85
148 148 151 152 157 159 157 155 154 156 156 156 154 150 146 143 143 144 145 141 138 137 137 136 138 139 137 136 134 135 136 136 138 140 143 144 142 145 149 150 148 142 135 131 130 129 124 117 112 106 102 105 109 108 101 96 96 95 95 100 106 108 108 106 101 99 96 93 94 94 94 94 97 98 97 96 93 92 89 88 89 87 85 86 86
148 149 151 151 155 156 154 153 156 158 157 157 152 149 148 145 145 146 144 141 138 137 140 140 140 139 139 139 136 138 138 137 140 142 143 143 144 149 152 152 150 145 140 138 138 134 126 120 115 108 104 108 112 109 102 97 96 93 92 99 107 110 110 105 101 99 95 92 92 92 93 96 101 100 98 97 96 95 93 92 90 88 86 86 88
149 150 152 152 154 154 154 154 157 158 157 156 152 151 149 146 145 146 143 142 142 141 145 145 143 142 142 144 140 140 139 135 138 144 150 149 149 152 153 153 155 155 151 148 146 140 132 127 120 110 105 108 112 111 104 98 95 92 92 99 107 112 113 109 104 101 96 94 93 91 91 95 99 99 98 97 97 96 94 93 90 89 89 87 90
149 151 152 153 155 155 155 156 157 157 157 155 154 154 150 146 146 146 144 143 144 145 147 146 145 146 148 148 141 141 141 136 135 140 150 151 149 151 154 159 161 162 160 157 154 147 139 133 125 113 105 107 113 113 106 98 95 93 94 101 108 112 115 111 107 104 102 98 93 91 93 97 98 96 97 98 96 95 96 94 93 94 92 90 89
152 154 154 154 155 157 156 156 156 154 157 154 154 156 151 148 148 148 147 144 145 147 149 149 150 151 152 151 145 143 145 143 140 140 145 147 148 152 159 165 165 166 166 165 161 152 144 137 128 115 108 110 117 117 111 102 96 95 96 102 107 111 114 110 106 106 106 99 92 91 95 100 100 97 97 99 99 98 98 96 94 95 95 92 88
156 157 156 156 156 156 156 156 156 156 155 151 153 156 153 152 153 151 149 149 149 151 153 153 153 154 156 154 150 149 151 151 147 146 146 146 152 156 161 168 167 168 170 169 165 157 147 139 130 119 113 116 122 123 118 106 99 97 97 102 107 110 110 106 105 106 104 98 91 93 99 102 100 95 95 97 98 98 97 94 92 93 95 95 93
156 157 158 159 157 158 158 158 159 160 156 152 154 155 155 156 157 154 153 154 154 154 155 156 158 158 157 153 152 154 157 157 153 152 153 152 155 157 163 169 168 168 170 171 168 160 149 140 134 125 119 122 128 128 123 111 103 99 99 102 106 109 109 109 108 103 100 96 92 95 100 101 100 98 97 96 93 95 95 93 92 92 92 94 97
154 157 160 159 160 161 160 161 162 163 160 157 156 156 158 159 159 158 158 158 156 155 155 157 160 158 156 152 152 157 161 161 159 160 158 157 156 157 163 168 168 168 169 172 171 164 152 141 138 133 126 128 130 131 128 117 107 102 102 104 106 110 113 114 111 106 102 97 95 101 102 98 101 102 100 98 95 97 101 99 95 93 91 94 100
156 160 164 163 163 164 162 161 164 167 165 161 160 160 161 161 161 162 162 160 158 156 155 157 158 158 158 156 157 161 164 163 162 166 161 159 160 158 161 164 165 167 168 170 172 167 154 143 141 140 134 132 132 134 133 123 111 105 105 105 107 112 114 115 113 110 107 102 100 103 104 104 105 105 101 100 101 101 102 101 96 91 89 91 98
159 164 167 168 167 166 164 164 168 171 169 166 163 161 163 163 164 166 165 164 162 161 162 163 162 164 165 167 169 165 164 164 165 171 167 163 163 158 156 158 164 167 167 168 171 169 157 148 146 145 141 137 137 138 137 129 119 112 110 108 108 111 112 113 113 111 108 106 108 110 113 112 107 106 104 101 98 95 96 101 98 91 88 85 86
161 166 169 172 172 169 168 170 173 174 173 170 166 165 168 168 168 170 168 168 169 169 171 172 172 172 171 174 175 168 165 167 169 172 171 166 160 157 155 156 161 165 166 165 169 170 159 151 150 150 147 144 143 142 137 130 125 121 117 112 110 110 112 112 111 110 107 105 112 119 119 111 106 107 107 103 98 93 94 100 99 95 93 87 80
164 169 171 174 177 175 173 174 174 176 176 175 172 172 174 174 173 172 171 172 174 175 177 178 178 178 178 178 175 169 168 171 174 174 175 174 165 159 158 159 162 166 168 168 169 169 162 154 155 155 153 150 147 143 138 132 128 127 122 117 113 113 115 115 112 110 107 106 113 118 114 109 107 106 103 102 98 93 92 95 95 94 92 88 83
169 173 175 177 181 181 178 176 175 179 182 181 178 177 178 178 177 175 174 175 177 179 180 180 181 184 183 181 177 173 172 173 176 178 181 181 176 168 162 163 167 168 170 173 173 170 166 159 158 159 157 154 149 143 140 135 131 129 126 122 118 118 120 120 118 115 110 109 117 118 113 113 111 107 105 101 97 94 92 92 91 91 89 87 86
172 177 180 180 185 186 182 180 180 183 186 184 181 180 182 182 180 179 176 177 181 180 180 182 186 188 187 184 182 180 175 174 178 181 184 182 183 175 167 171 174 171 171 173 175 173 169 164 160 160 158 155 150 145 144 141 136 134 132 128 125 125 126 125 125 123 116 113 120 122 117 115 111 109 107 101 99 97 94 94 91 90 91 89 87
176 178 184 187 190 192 188 186 187 186 186 186 184 184 187 187 183 181 180 183 184 182 183 187 191 192 190 187 185 184 180 178 181 183 185 183 184 177 171 179 180 177 175 172 175 176 172 167 161 158 158 157 153 150 151 147 143 141 137 132 131 131 130 130 131 129 122 115 118 126 127 123 122 122 116 108 104 100 96 99 97 93 95 93 91
188 184 186 192 195 197 195 193 192 189 188 188 189 190 190 190 186 184 185 187 186 187 190 190 193 195 193 191 189 188 187 183 182 184 187 187 187 183 178 182 185 184 181 176 176 178 177 173 164 157 157 158 157 156 156 153 151 149 144 138 137 140 136 132 133 131 126 120 119 134 144 134 122 119 116 113 108 105 101 99 97 94 93 87 90
194 191 191 196 197 199 200 198 195 193 191 192 195 195 193 191 187 186 190 190 189 191 194 193 196 197 195 196 195 193 193 187 183 184 189 193 192 189 186 185 189 189 187 185 179 179 183 181 169 159 156 158 158 158 158 158 158 156 152 147 147 149 143 134 135 133 128 124 122 134 151 137 109 107 114 118 114 110 105 99 95 97 98 90 96
197 197 198 200 199 200 203 202 199 196 196 199 200 197 193 191 185 188 195 193 191 195 196 199 201 201 200 201 201 199 195 190 188 187 191 196 196 194 192 191 193 194 192 190 186 182 184 185 177 166 159 157 156 157 160 162 163 163 161 157 156 155 146 140 140 134 131 130 125 129 144 138 124 121 121 123 120 114 104 101 100 101 103 99 100
204 204 204 204 204 205 206 207 205 203 201 200 201 196 191 192 188 192 202 198 195 200 199 203 209 206 205 205 205 203 197 194 193 193 194 194 195 194 194 195 196 199 198 193 192 188 186 187 183 176 170 165 161 160 164 167 167 168 168 166 164 160 151 145 143 139 140 137 131 133 138 140 144 141 133 133 131 117 106 108 107 102 105 104 102
210 210 211 212 212 210 209 210 212 211 208 203 200 197 193 198 201 198 201 203 202 206 204 209 217 214 210 211 211 207 203 201 195 193 197 195 192 191 192 196 196 199 203 198 195 195 193 190 185 183 184 182 176 170 170 173 173 173 174 173 170 166 155 149 149 148 148 142 136 138 139 139 146 147 148 155 150 131 124 121 112 108 112 108 106
213 214 215 218 218 218 217 214 214 214 211 211 202 196 194 197 204 203 203 206 210 217 215 215 223 224 221 220 216 211 207 205 200 195 197 198 195 193 191 192 193 194 202 203 200 201 199 193 189 188 189 191 188 178 171 171 171 172 176 177 173 168 157 154 156 155 155 147 142 145 148 146 143 140 147 166 170 157 138 124 116 118 118 111 107
217 219 218 219 223 224 223 216 215 214 208 212 212 211 210 197 195 202 208 208 212 225 226 221 225 231 235 231 219 212 210 208 208 204 202 202 199 199 197 193 190 187 192 202 203 202 198 195 193 191 188 186 182 173 167 168 167 167 172 173 171 165 159 160 161 160 158 150 149 155 155 150 146 136 134 150 154 153 145 128 119 122 118 108 102
219 222 220 220 225 225 220 214 213 211 200 202 211 214 212 206 203 208 212 211 214 225 233 233 229 232 240 233 216 208 208 209 211 210 211 212 208 206 204 197 191 184 183 193 206 204 197 196 196 192 187 178 167 165 166 168 166 164 166 167 167 165 164 164 164 164 161 155 158 164 155 146 144 134 128 128 122 124 148 138 121 121 126 119 109
219 220 218 215 219 223 217 214 213 214 212 210 214 214 212 217 220 215 210 213 219 223 232 241 237 234 234 224 214 209 212 216 217 218 219 222 220 216 211 201 192 187 184 189 211 215 202 199 193 188 189 179 164 166 166 164 162 160 163 167 167 168 169 167 168 168 164 164 167 166 154 149 149 135 127 125 119 115 121 130 126 117 120 126 119
221 217 219 216 216 220 216 214 215 218 220 219 220 220 222 224 220 213 209 215 224 228 234 241 239 238 236 228 225 223 226 227 225 225 223 225 229 224 217 207 196 193 192 193 217 222 210 203 191 177 184 179 167 165 164 160 158 157 161 168 171 173 174 171 171 171 169 172 174 171 163 160 164 150 133 127 123 121 117 122 129 121 116 125 125
225 223 226 226 220 221 220 219 218 215 213 218 225 227 225 222 216 210 207 212 225 234 238 237 234 236 241 243 240 238 241 240 234 231 227 226 229 227 220 211 202 199 199 198 217 221 208 201 191 173 167 168 165 163 159 155 151 155 159 163 171 173 174 175 177 180 180 183 184 181 174 169 176 166 149 144 134 128 129 129 131 125 120 125 126
229 230 234 235 226 223 226 224 220 218 218 221 225 222 216 213 212 205 198 207 219 229 237 238 235 235 238 245 248 248 250 249 243 236 232 229 227 227 220 210 205 203 202 198 210 218 202 192 186 170 157 147 153 159 157 151 143 144 149 156 169 174 179 183 186 190 188 194 200 199 191 186 191 186 171 165 154 141 143 143 137 127 124 128 123
222 226 235 235 224 225 231 225 220 223 228 228 223 215 207 209 214 210 206 211 210 210 227 241 239 230 235 251 255 254 254 250 245 238 233 230 226 228 222 211 207 205 201 196 204 215 203 188 174 159 155 146 150 159 157 148 138 139 145 152 163 168 178 183 187 201 203 205 210 211 209 201 203 204 191 184 180 172 166 162 155 148 144 143 138
221 221 229 225 217 226 233 229 229 231 232 229 224 218 216 220 221 219 219 214 203 198 213 236 239 226 235 251 252 253 256 252 248 240 228 226 231 233 226 214 210 206 200 197 205 211 203 193 177 162 161 152 155 164 161 153 145 148 151 150 150 149 162 173 186 205 212 218 220 222 223 212 208 211 200 196 196 190 187 182 181 182 176 162 151
225 222 216 211 212 220 225 227 233 235 234 234 233 230 231 234 228 225 224 213 205 208 221 238 246 234 228 237 241 245 251 250 248 239 217 216 231 234 228 218 211 206 199 200 210 211 205 198 183 172 168 158 161 169 168 162 155 154 153 155 159 156 166 182 195 194 202 223 221 218 220 211 208 208 201 200 201 197 199 197 196 195 196 192 159
213 212 215 211 208 217 224 231 233 231 234 243 248 245 242 240 235 234 233 223 216 225 241 250 250 241 228 230 238 242 247 248 243 236 217 214 225 225 223 218 211 208 203 203 211 212 207 197 183 177 167 157 161 173 177 171 162 159 156 156 161 186 214 183 182 185 179 202 202 194 193 194 197 195 193 198 197 191 187 190 196 196 203 227 220
138 170 218 221 214 225 235 241 241 239 242 246 246 242 237 230 231 234 233 227 214 217 239 246 237 237 236 234 237 237 241 243 239 235 223 216 219 214 214 215 211 208 204 204 210 208 203 193 186 184 174 167 164 170 182 182 178 173 161 148 153 208 227 160 167 193 193 190 182 177 175 174 178 176 179 190 188 179 169 170 174 183 200 219 214
96 91 235 244 231 243 261 257 253 255 260 259 246 232 226 217 211 214 217 215 205 207 228 240 236 235 240 238 234 231 232 234 235 234 224 218 216 209 209 214 211 208 203 206 212 209 201 196 195 189 182 179 167 165 178 185 189 185 172 170 179 236 181 156 167 187 183 188 182 174 171 163 166 169 175 182 181 180 183 188 173 168 180 170 191
61 19 348 318 299 299 299 288 275 273 276 273 256 232 218 210 206 211 220 222 220 224 236 248 246 242 244 242 236 232 228 226 227 227 220 216 216 212 211 213 210 210 207 206 211 208 201 200 198 192 185 181 172 170 179 182 188 193 187 183 192 199 162 164 185 177 166 182 177 173 175 167 162 165 173 175 176 178 183 191 174 149 167 149 226
30 359 349 336 318 312 306 298 287 280 276 271 259 240 223 211 211 217 224 232 240 246 251 253 250 247 247 246 241 237 232 227 223 219 211 208 215 216 211 209 211 211 210 212 211 204 202 201 197 196 192 186 184 182 181 184 188 192 191 190 189 177 164 170 195 184 170 170 166 170 172 168 168 166 163 163 171 169 166 188 192 229 286 289 274
31 20 6 350 331 320 309 297 290 289 282 270 256 242 237 231 226 223 222 230 241 250 255 253 246 244 244 242 240 239 236 231 224 218 210 203 211 217 211 207 211 209 208 212 208 199 204 206 200 200 200 196 196 193 187 188 193 191 186 185 171 157 162 166 174 176 174 168 170 172 160 157 165 160 147 151 166 165 165 196 204 223 273 287 287
28 20 10 354 335 320 302 287 285 288 285 276 262 248 242 237 232 226 223 229 235 240 245 246 239 235 236 235 234 237 238 233 224 218 212 202 203 214 215 208 208 209 208 206 201 200 207 209 205 203 205 205 202 201 201 197 197 194 185 183 171 162 165 166 171 173 173 178 180 176 170 166 162 148 139 162 165 155 154 166 172 188 251 284 277
29 16 9 359 339 317 291 280 277 274 272 272 267 255 241 235 237 236 234 237 238 235 234 235 234 231 232 232 232 234 236 232 224 219 213 202 199 212 216 210 207 210 210 208 206 207 205 202 202 204 208 210 205 203 206 200 197 195 190 190 186 182 182 178 178 177 176 179 171 169 175 175 164 141 139 162 157 141 137 134 124 115 98 105 103